Starlink 5297

operational
NORAD ID: 54158 Int'l Des: 2022-141 Owner: SPXS Country: US Constellation: starlink
LEOCIRCULAR

Über Starlink 5297

Beschreibung wird geladen...

Live-Position

3D-Globus wird geladen...

Nächste Überflüge

Höhenverlauf

Altitude vs Time

uPlot chart will show altitude changes over time

Zweizeiliger Elementsatz

1 54158U 22141B 25351.34195618 .00000033 00000-0 20157-4 0 9991
2 54158 53.2191 23.9295 0001394 89.3754 270.7398 15.08836563173281
Epoch: 17. Dez. 2025 • Age: 8 hours

Aktueller Status

Höhe 545.4 km
Geschwindigkeit 7.60 km/s
Subsatellitenpunkt 53.24°N, 142.93°E
Startdatum 28. Okt. 2022
Alter 3.1 years
Typ internet

Technische Details

Klassifizierung Payload
Masse 305.00 kg
Trockenmasse 290.00 kg
Gesamtmasse 305.00 kg
Länge 0.20 m
Durchmesser 2.80 m
Spannweite 9.00 m
Form Box + pan
Hersteller SPXS
Bus-Typ Starlink
Phasenstatus In Orbit
Besitzer/Staat SPXS/US

Große Konstellationen

Loading constellations...